EHI
5 3 1 0 1 2 2 1 0 0 1 2 1 0 0 1 3 4 5 6 5 2 2 2 4 6 5 2 0 1 3 4 3 1 0 0 0 0 0 0 0 0 0
4 2 1 0 0 1 1 0 0 0 1 2 1 0 0 1 2 3 5 6 5 4 4 5 6 5 4 2 1 2 3 4 3 1 0 0 0 0 0 0 0 0 0
3 1 1 0 0 0 0 0 0 0 0 1 1 0 0 1 1 3 3 3 4 4 4 6 6 4 3 2 3 3 3 2 1 0 0 0 0 0 0 0 0 0 0
2 1 0 0 0 0 0 0 0 1 0 0 0 0 0 0 1 1 1 1 1 1 2 3 5 3 2 2 2 3 3 2 1 0 0 0 0 0 0 0 0 0 0
1 0 0 0 0 0 0 0 0 0 0 0 0 0 0 0 0 0 0 0 0 0 0 1 3 3 3 2 1 1 1 1 1 0 0 0 0 0 0 0 0 0 0
2 1 1 1 0 0 0 0 0 0 0 0 0 0 0 0 0 0 0 0 0 0 0 0 1 1 2 2 1 0 0 0 0 0 0 0 0 0 0 0 0 0 0
2 2 2 2 1 0 0 0 0 0 0 0 0 0 0 0 0 0 0 0 0 0 0 0 0 0 1 1 0 0 0 0 0 0 0 0 0 0 0 0 0 0 0
2 3 3 3 2 1 0 0 0 0 0 0 0 0 0 0 0 0 0 0 0 0 0 0 0 0 0 1 0 0 1 0 0 0 0 0 0 0 0 0 0 0 0
4 4 4 3 3 2 1 1 0 0 0 0 0 0 0 0 0 0 0 0 0 0 0 0 0 0 0 0 0 0 0 0 0 0 0 0 0 0 0 0 0 0 0
4 5 3 2 2 2 2 1 0 0 0 0 0 0 0 0 0 0 0 0 0 0 0 0 0 0 0 0 0 0 0 0 0 0 0 0 0 0 0 0 0 0 0
4 4 2 1 1 1 1 1 0 0 0 0 0 0 0 0 0 0 0 0 0 0 0 0 0 0 0 0 0 0 0 0 0 0 0 0 0 0 0 0 0 0 0
4 3 1 0 0 0 0 0 0 0 0 0 0 0 0 0 0 0 0 0 0 0 0 0 0 0 0 0 0 0 0 0 0 0 0 0 0 0 0 0 0 0 0
2 2 1 0 0 0 0 0 0 0 0 0 0 0 0 0 0 0 0 0 0 0 0 0 0 0 0 0 0 0 0 0 0 0 0 0 0 0 0 0 0 0 0
1 1 0 0 0 0 0 0 0 0 0 0 0 0 0 0 0 0 0 0 0 0 0 0 0 0 0 0 0 0 0 0 0 0 0 0 0 0 0 0 0 0 0
0 0 0 0 0 0 0 0 0 0 0 0 0 0 0 0 0 0 0 0 0 0 0 0 0 0 0 0 0 0 0 0 0 0 0 0 0 0 0 0 0 0 0
0 0 0 0 0 0 0 0 0 0 0 0 0 0 0 0 0 0 0 0 0 0 0 0 0 0 0 0 0 0 0 0 0 0 0 0 0 0 0 0 0 0 0
0 0 0 0 0 0 0 0 0 0 0 0 0 0 0 0 0 0 0 0 0 0 0 0 0 0 0 0 0 0 0 0 0 0 0 0 0 0 0 0 0 0 0
0 0 0 0 0 0 0 0 0 0 0 0 0 0 0 0 0 0 0 0 0 0 0 0 0 0 0 0 0 0 0 0 0 0 0 0 0 0 0 0 0 0 0
0 0 0 0 0 0 0 0 0 0 0 0 0 0 0 0 0 0 0 0 0 0 0 0 0 0 0 0 0 0 0 0 0 0 0 0 0 0 0 0 0 0 0
0 0 0 0 0 0 0 0 0 0 0 0 0 0 0 0 0 0 0 0 0 0 0 0 0 0 0 0 0 0 0 0 0 0 0 0 0 0 0 0 0 0 0
0 0 0 0 0 0 0 0 0 0 0 0 0 0 0 0 0 0 0 0 0 0 0 0 0 0 0 0 0 0 0 0 0 0 0 0 0 0 0 0 0 0 0
0 0 0 0 0 0 0 0 0 0 0 0 0 0 0 0 0 0 0 0 0 0 0 0 0 0 0 0 0 0 0 0 0 0 0 0 0 0 0 0 0 0 0
0 0 0 0 0 0 0 0 0 0 0 0 0 0 0 0 0 0 0 0 0 0 0 0 0 0 0 0 0 0 0 0 0 0 0 0 0 0 0 0 0 0 0
0 0 0 0 0 0 0 0 0 0 0 0 0 0 0 0 0 0 0 0 0 0 0 0 0 0 0 0 0 0 0 0 0 0 0 0 0 0 0 0 0 0 0
0 0 0 0 0 0 0 0 0 0 0 0 0 0 0 0 0 0 0 0 0 0 0 0 0 0 0 0 0 0 0 0 0 0 0 0 0 0 0 0 0 0 0
0 0 0 0 0 0 0 0 0 0 0 0 0 0 0 0 0 0 0 0 0 0 0 0 0 0 0 0 0 0 0 0 0 0 0 0 0 0 0 0 0 0 0
Wind_Speed
2 2 1 1 1 1 1 1 2 2 2 2 2 2 2 2 2 2 1 4 4 4 4 5 5 5 6 6 6 6 6 6 6 6 5 5 4 4 4 3 3 3 2
2 2 2 2 2 2 2 2 2 2 2 2 2 2 2 2 3 3 2 2 4 4 4 5 5 6 6 6 6 6 6 7 7 6 6 5 5 5 4 4 4 4 3
2 2 2 2 1 1 2 2 2 2 2 2 2 2 2 2 3 3 3 2 2 4 5 6 6 7 7 7 7 7 7 6 6 6 6 6 5 5 4 4 4 5 5
1 1 1 1 1 1 2 2 2 2 2 2 1 1 2 2 3 3 3 3 2 2 4 6 7 7 7 8 7 7 7 6 6 6 6 6 6 6 5 6 6 6 6
1 1 1 1 1 1 1 1 1 2 2 2 2 1 1 2 2 3 4 4 4 4 3 5 7 7 7 7 7 6 6 6 6 6 6 6 6 6 7 7 7 6 6
1 1 1 0 1 1 1 1 2 1 2 3 2 2 2 2 2 2 3 3 4 4 4 4 3 4 7 7 6 6 5 5 6 6 6 6 6 7 7 6 6 6 6
2 1 0 0 1 1 2 2 2 3 2 3 3 2 2 3 3 2 2 3 4 4 4 4 3 3 3 6 6 5 5 5 5 6 5 6 6 6 6 6 5 5 5
2 1 1 0 1 1 2 2 3 2 2 2 2 3 2 1 1 2 2 3 4 4 4 4 4 4 3 2 4 7 6 6 6 6 6 6 6 6 6 6 6 5 4
1 1 1 1 0 1 2 3 3 4 4 2 2 3 3 3 2 2 2 2 3 3 3 3 4 4 3 3 2 5 6 6 6 7 7 7 7 6 6 6 6 5 6
3 2 2 1 0 0 1 2 3 2 4 3 1 1 1 3 4 3 1 2 2 3 2 2 3 3 3 2 3 6 6 6 6 6 6 6 6 7 6 6 6 6 6
4 4 2 1 1 0 0 1 1 1 2 3 2 2 2 1 1 3 3 2 2 2 2 2 2 2 2 2 2 4 6 6 6 6 6 6 6 6 6 6 6 6 6
3 4 3 3 2 2 1 1 1 2 1 1 2 2 2 2 2 2 3 4 3 1 2 2 1 1 1 1 2 5 5 6 5 5 5 5 5 6 6 6 6 7 7
3 4 4 3 3 3 3 2 2 2 2 2 2 1 1 1 2 2 4 3 3 1 1 1 0 1 1 1 1 3 3 3 3 4 4 5 5 5 6 6 7 7 7
3 4 4 3 4 4 4 3 3 3 3 3 3 2 2 2 2 3 4 5 4 2 1 1 0 0 1 1 1 1 1 2 3 3 3 3 3 4 5 5 6 6 6
3 4 4 5 5 5 5 4 4 4 4 4 4 4 3 2 2 2 3 4 4 4 2 1 1 0 1 1 1 1 1 1 1 2 2 3 3 3 3 4 4 4 4
5 5 5 6 6 6 6 5 5 5 6 5 4 5 5 3 3 3 3 2 2 3 3 1 0 1 1 1 1 1 0 0 1 1 2 3 3 2 2 2 2 2 3
6 6 5 6 6 6 6 6 6 6 6 6 5 6 6 4 4 3 3 3 3 3 4 2 1 1 2 1 1 1 0 0 1 2 3 4 4 3 3 2 1 1 1
6 6 6 6 6 6 5 6 6 6 6 6 6 6 6 4 5 4 4 4 3 3 4 4 2 2 2 1 1 1 1 1 0 2 3 4 4 4 4 3 2 2 1
6 6 6 6 6 6 5 5 6 6 6 6 5 6 5 5 6 4 5 4 3 4 4 5 3 2 2 2 1 1 2 1 1 1 1 2 3 3 3 3 3 3 2
6 7 7 6 6 6 6 6 6 6 6 6 6 6 5 5 5 5 5 5 5 5 5 5 3 2 2 2 2 2 2 2 1 2 2 1 1 1 2 3 3 3 3
7 6 7 7 7 6 6 6 6 6 6 7 7 7 6 7 7 5 4 4 5 4 4 4 3 2 2 1 2 1 1 1 1 1 1 1 1 0 1 2 3 3 4
6 7 7 7 7 6 8 9 6 6 6 7 6 6 6 8 9 10 9 7 5 5 4 3 2 2 1 0 1 1 1 1 1 1 1 1 1 1 1 2 2 4 4
6 7 6 6 7 7 9 9 9 6 6 6 6 5 5 6 7 6 8 9 8 6 4 3 3 2 1 1 1 1 1 0 0 1 1 1 1 1 1 2 4 4 4
5 5 5 6 6 7 9 9 9 7 6 6 6 5 5 5 5 5 6 6 6 5 3 2 2 1 1 1 2 1 1 0 1 1 1 1 1 1 2 2 3 4 4
5 5 4 6 6 6 8 8 7 5 5 6 5 5 5 5 6 6 6 5 5 4 4 3 1 1 2 3 3 2 1 1 1 1 1 1 1 1 2 2 2 3 3
4 5 6 6 6 5 7 8 6 4 4 4 4 5 6 6 6 5 4 4 4 3 3 3 3 3 1 1 3 2 1 1 0 1 1 1 1 1 2 2 2 2 2
Wind_Direction
189 200 212 200 202 190 187 191 191 190 182 173 183 184 192 166 156 151 134 136 137 143 159 167 161 157 155 146 143 142 143 140 133 126 120 118 116 115 115 118 116 118 124
188 203 216 214 215 203 194 192 195 192 189 171 173 180 168 152 139 136 120 112 121 131 143 150 143 139 133 132 131 131 127 125 123 118 112 109 108 103 99 94 94 94 92
199 206 214 216 219 204 191 186 187 178 176 167 157 150 144 149 139 124 109 95 97 116 128 130 127 124 123 121 117 118 118 118 117 114 111 105 102 100 98 94 91 87 82
200 197 219 228 220 194 181 189 182 166 165 154 141 133 130 132 128 117 105 101 95 93 104 113 115 115 115 114 112 109 107 110 111 109 105 100 95 92 90 87 83 80 74
191 189 220 241 210 193 182 192 165 161 163 149 138 122 119 136 134 128 119 111 102 95 92 100 101 104 107 110 113 116 115 110 108 107 104 101 96 90 88 83 77 72 67
5 207 190 188 166 171 172 169 168 169 166 154 135 105 89 106 103 116 126 112 103 96 90 85 85 92 96 99 103 114 117 115 109 103 102 100 96 91 89 87 83 76 69
357 334 321 181 163 169 180 177 166 163 160 140 125 120 82 74 82 84 104 107 103 98 91 88 83 76 82 88 93 96 106 113 110 107 101 99 97 95 93 90 87 80 71
353 349 359 308 201 180 169 180 166 169 170 164 149 140 137 111 85 79 92 104 106 100 93 89 84 75 67 65 90 93 89 94 105 106 105 100 98 98 95 90 84 78 69
348 0 4 339 264 181 186 193 181 169 180 189 174 156 159 175 134 82 82 98 109 105 100 93 89 82 74 62 72 81 87 81 87 91 93 91 90 89 89 86 79 70 61
6 6 7 2 336 205 196 199 184 183 169 176 192 177 137 142 148 140 97 92 105 104 105 104 96 87 78 69 78 94 89 82 86 90 89 89 89 84 78 75 69 63 56
10 13 13 12 19 28 158 164 165 153 164 173 166 144 113 92 110 138 149 143 99 75 82 96 104 94 84 84 80 94 90 84 84 87 84 80 79 79 73 67 64 64 56
4 12 19 22 16 18 20 70 116 115 126 142 136 134 143 148 162 134 145 148 129 86 70 71 81 85 80 87 103 102 97 88 82 80 79 75 73 74 71 63 64 61 54
6 6 20 21 21 22 29 40 62 71 87 96 94 116 120 124 132 128 130 131 120 98 84 76 88 121 106 59 75 102 111 110 97 85 83 78 72 77 74 69 64 59 54
9 10 22 29 34 40 46 45 57 53 66 71 67 74 86 87 107 128 136 140 130 111 99 162 150 174 110 96 72 58 96 115 107 103 102 97 86 83 78 72 67 63 56
23 28 33 36 40 45 51 58 60 58 62 63 64 68 68 63 79 95 120 143 146 148 157 175 163 149 127 141 154 120 112 107 115 130 132 124 111 99 93 84 76 65 54
33 39 44 44 45 46 50 58 61 59 64 55 58 66 63 59 66 77 96 90 100 129 133 140 126 109 135 125 110 113 152 216 210 182 169 164 160 149 140 122 95 73 58
40 44 47 52 54 52 49 59 58 59 64 57 54 63 59 61 71 69 76 81 81 96 116 101 72 78 84 87 54 45 61 189 216 215 199 192 190 187 187 181 173 143 55
44 47 50 54 57 55 50 58 61 56 60 58 52 57 51 59 63 66 74 78 81 87 121 120 90 63 57 67 69 61 37 45 277 231 199 193 198 201 199 201 212 225 247
47 48 53 54 54 53 54 58 63 62 60 57 56 59 53 63 62 61 68 75 76 81 92 114 102 74 60 51 60 49 42 19 358 76 138 177 201 205 206 216 229 238 238
52 48 50 51 52 52 54 58 62 62 58 55 55 56 55 64 71 73 75 78 85 86 91 101 101 83 67 47 64 52 37 18 14 26 38 46 86 179 216 227 233 239 241
54 53 55 51 49 51 49 55 61 63 60 56 52 50 54 61 64 70 84 89 94 94 95 98 95 82 58 52 54 23 46 3 19 25 12 16 17 340 263 241 238 241 248
51 52 52 53 52 50 45 54 66 65 61 60 54 46 50 52 57 63 72 80 92 107 109 101 98 103 79 71 67 63 65 36 11 25 5 339 348 288 278 265 252 252 253
55 56 52 54 53 45 49 56 59 65 60 55 50 46 50 49 54 66 66 64 60 68 101 127 131 150 168 179 149 106 105 88 288 326 345 313 336 292 283 276 269 264 258
58 56 51 50 53 44 50 59 61 61 59 51 47 47 54 42 48 65 71 64 55 47 57 101 144 177 200 189 179 147 126 137 283 271 228 268 324 301 310 299 277 267 270
57 52 52 50 54 42 44 57 67 65 59 47 41 40 47 49 46 66 76 70 56 37 44 59 118 197 221 210 178 151 138 91 13 320 190 228 284 313 302 293 298 298 284
62 59 55 47 50 43 39 54 66 76 65 48 36 32 38 44 44 61 81 81 60 22 14 27 38 35 38 83 176 189 183 163 215 276 184 200 245 298 299 288 292 298 298